User: anonymous
Location: Unspecified
(0.0000°N, 0.0000°E)
Time: 08:00:28
(UTC+00:00)
Language:

Vanguard 2 Rocket - Orbit

View from above orbital plane
View from above orbital plane
View from above satellite
View from above satellite

Ground track
Ground track

The orbit data is extracted from the following two-line orbital elements,

1 00012U 59001B   14293.40316931  .00000648  00000-0  38577-3 0  9399
2 00012 032.9013 020.0951 1670583 012.9124 350.9338 11.43412397285774
Epoch (UTC): 20 October 2014 09:40:33
Eccentricity: 0.1670583
inclination: 32.9013°
perigee height: 554 km
apogee height: 3335 km
right ascension of ascending node: 20.0951°
argument of perigee: 12.9124°
revolutions per day: 11.43412397
mean anomaly at epoch: 350.9338°
orbit number at epoch: 28577

The dashed part of the orbit path shows where the satellite is in the earth's shadow,  

DLR